Regional Weather Roundup
Issued by NWS Green Bay, WI

Home | Current Version | Previous Version | Graphics & Text | Print | Product List | Glossary Off
Versions: 1 2 3 4 5 6 7 8 9 10 11 12 13 14 15 16 17 18 19 20 21 22 23 24 25 26 27 28 29 30 31 32 33 34 35 36 37 38 39 40 41 42 43 44 45 46 47 48 49 50

000
ASUS43 KGRB 122111
RWRGRB

NORTH-CENTRAL AND NORTHEAST WISCONSIN REGIONAL WEATHER ROUNDUP
NATIONAL WEATHER SERVICE GREEN BAY WI
300 PM CST FRI FEB 12 2016

WIZ005-009-010>012-018-019-122200-
NORTH CENTRAL WISCONSIN

CITY           SKY/WX    TMP DP  RH WIND       PRES   REMARKS
IRONWOOD       CLOUDY     1  -6  71 NW18      30.27S WCI -19
MANITOWISH WTR CLOUDY    -1 -12  61 NW20G29   30.23R HAZE    WCI -23
ARBOR VITAE    PTSUNNY    1  -9  61 NW13G28   30.22R HAZE    WCI -16
EAGLE RIVER    LGT SNOW   0  -8  68 NW22G29   30.19R VSB 3/4 WCI -23
LAND O LAKES   LGT SNOW   1 -10  61 NW21G31   30.19R VSB 1   WCI -21
RHINELANDER    CLOUDY     2 -11  54 NW16G30   30.19R WCI -18
PHILLIPS       CLOUDY     2 -11  54 NW14G22   30.26R WCI -16
ANTIGO         CLOUDY     3 -10  53 NW22G31   30.17R HAZE    WCI -19
TOMAHAWK       CLOUDY     4 -13  46 NW13G23   30.23R WCI -13
MERRILL        PTSUNNY    6 -10  45 N22G29    30.23R WCI -14
$$

WIZ013-073-122200-
NORTHEAST WISCONSIN

CITY           SKY/WX    TMP DP  RH WIND       PRES   REMARKS
IRON MOUNTAIN  LGT SNOW   3 -10  54 NW24G37   30.16R WCI -20
MARINETTE      PTSUNNY    9  -2  61 NW14G24   30.17R WCI  -8
OCONTO         CLOUDY    11  -1  58 N18G26    30.18R WCI  -7
$$

WIZ017-030-035>037-045-122200-
CENTRAL WISCONSIN

CITY           SKY/WX    TMP DP  RH WIND       PRES   REMARKS
MEDFORD        MOSUNNY    5  -8  53 NW17G30   30.23R HAZE    WCI -14
WAUSAU         MOSUNNY    9 -10  42 NW13G24   30.21R WCI  -7
MOSINEE        MOSUNNY    9  -8  47 NW23G31   30.22R WCI -12
MARSHFIELD     SUNNY      8  -8  48 NW22G31   30.23R WCI -12
WISC RAPIDS    MOSUNNY   10  -8  44 NW18G30   30.26R WCI  -8
STEVENS POINT  SUNNY      8 -11  41 NW17G28   30.22R WCI -10
WAUPACA        MOSUNNY   14  -9  34 NW21G30   30.22R WCI  -3
SHAWANO        CLOUDY    13 -11  33 NW18G33   30.20R WCI  -4
CLINTONVILLE   MOSUNNY   14  -9  34 NW18G26   30.20R WCI  -3
WAUTOMA        PTSUNNY   13  -7  40 NW24G31   30.24R WCI  -6
$$

WIZ038-039-048-051-122200-
FOX VALLEY

CITY           SKY/WX    TMP DP  RH WIND       PRES   REMARKS
NWS GREEN BAY  PTSUNNY   12  -5  46 NW22G35   30.17R WCI  -7
APPLETON       PTSUNNY   12  -9  37 NW18G28   30.16R WCI  -5
OSHKOSH        PTSUNNY   13  -4  46 NW21G31   30.18R WCI  -5
FOND DU LAC    CLOUDY    14  -3  47 NW22G32   30.18R WCI  -4
$$

WIZ022-050-052-122200-
EAST CENTRAL WISCONSIN

CITY           SKY/WX    TMP DP  RH WIND       PRES   REMARKS
EPHRAIM        MOCLDY    10  -6  46 NW14G26   30.13R WCI  -5
STURGEON BAY   CLOUDY    12   1  62 N24G30    30.16R WCI  -8
MANITOWOC      CLOUDY    15   0  51 NW23      30.16R WCI  -3
SHEBOYGAN      MOSUNNY   13  -4  46 NW24G32   30.16R WCI  -7
$$

LMZ563-521-522-541>543-122200-
LAKESHORE

STATION/POSITION TIME  TEMP    WIND        PRES    VSBY  WAVE
                       AIR SEA DIR/SP/G                  HT/PER
                 (UTC) (F)     (DEG/KT/KT) (MB)    (MI)  (FT/S)
SHEBOYGAN LKSHOR 2100   14     330/ 20/ 25 1023.0R
KEWAUNEE LKSHORE 2000   15     300/ 18/ 25 1019.1R
SISTER BAY LKSHO 2019   11     360/ 28/ 36   N/A
CHAMBERS ISLAND  2000   11     310/ 19/ 25 1020.3R
MENOMINEE LKSHOR 2000   12     330/ 27     1019.2R
$$



USA.gov is the U.S. government's official web portal to all federal, state and local government web resources and services.